{"data":{"norad_id":62125,"epoch":"2026-05-25T04:23:54.961728Z","epoch_age_seconds":63218,"freshness":"FRESH","line1":"1 62125U 24222M   26145.18327502  .00028132  00000+0  10271-2 0  9992","line2":"2 62125  43.0024  64.5323 0001701 263.5416  96.5242 15.27606388 84343","mean_motion":15.27606388,"eccentricity":0.0001701,"inclination_deg":43.0024,"raan_deg":64.5323,"arg_perigee_deg":263.5416,"mean_anomaly_deg":96.5242,"bstar":0.0010271,"rev_number":8434,"period_min":94.265120341982,"perigee_km":481.8030076974,"apogee_km":484.1371563267,"semimajor_km":6861.1070820121,"source":"CELESTRAK","updated_at":"2026-05-25T13:38:19.564803Z"}}